EW2420 Weather Reports


time (UTC)temp
C
wind
direction
speed
KPH
gust
KPH
rain 1hr
cm
rain 24hr
cm
rain mn
cm
humidity
%
barometer
mb
20260507070042 2 313 8.0 14.5 0.00 0.33 0.00 73 1005.6
20260507064540 2 319 9.7 16.1 0.00 0.33 0.00 73 1005.7
20260507063040 2 311 11.3 14.5 0.00 0.33 0.00 73 1005.7
20260507061537 3 331 9.7 14.5 0.00 0.33 0.00 71 1005.9
20260507060019 3 321 11.3 17.7 0.00 0.33 0.00 69 1005.9
20260507054521 3 306 12.9 16.1 0.00 0.33 0.00 68 1006.0
20260507053121 3 323 12.9 17.7 0.00 0.33 0.00 68 1006.0
20260507051605 3 311 14.5 20.9 0.00 0.33 0.00 68 1006.0
20260507050041 3 300 16.1 25.7 0.00 0.33 0.00 68 1006.2
20260507044540 3 317 12.9 17.7 0.00 0.33 0.00 71 1006.2
20260507043024 3 302 11.3 17.7 0.00 0.33 0.00 72 1006.1
20260507041521 3 304 9.7 16.1 0.00 0.33 0.00 71 1006.1
20260507040002 3 313 9.7 17.7 0.00 0.36 0.00 69 1006.0
20260507034501 3 322 14.5 24.1 0.00 0.36 0.00 67 1005.9
20260507033042 3 312 11.3 17.7 0.00 0.36 0.00 68 1005.6
20260507031540 3 319 9.7 16.1 0.00 0.36 0.00 68 1005.8
20260507030021 3 306 11.3 17.7 0.00 0.36 0.00 66 1006.0
20260507024519 4 305 17.7 29.0 0.00 0.36 0.00 63 1005.9
20260507023059 4 304 17.7 29.0 0.00 0.36 0.00 62 1006.1
20260507021603 4 328 17.7 25.7 0.00 0.36 0.00 62 1005.8
20260507020059 4 324 16.1 29.0 0.00 0.36 0.00 62 1006.0
20260507014537 5 317 22.5 32.2 0.00 0.36 0.00 61 1006.0
20260507013037 5 304 14.5 22.5 0.00 0.36 0.00 65 1005.8
20260507011515 5 321 14.5 22.5 0.00 0.36 0.00 64 1005.8
20260507010059 6 328 16.1 22.5 0.00 0.36 0.00 63 1005.6
20260507004600 6 324 17.7 30.6 0.00 0.36 0.00 63 1005.2
20260507003040 6 333 19.3 33.8 0.00 0.36 0.00 62 1005.0
20260507001527 7 321 14.5 20.9 0.00 0.36 0.00 65 1005.0
20260507000008 7 329 9.7 19.3 0.00 0.36 0.00 68 1004.9
20260506234506 7 315 11.3 14.5 0.00 0.36 0.00 71 1004.8
20260506233102 7 311 8.0 14.5 0.00 0.36 0.00 73 1004.9
20260506231554 7 325 8.0 16.1 0.00 0.36 0.00 74 1004.6
20260506230026 7 294 9.7 16.1 0.00 0.36 0.00 79 1004.5
20260506224525 7 327 9.7 17.7 0.00 0.36 0.00 84 1004.2
20260506223005 7 323 11.3 20.9 0.00 0.36 0.00 87 1004.1
20260506221505 6 342 9.7 19.3 0.00 0.36 0.00 90 1004.0
20260506220048 6 302 9.7 19.3 0.00 0.41 0.00 91 1004.1
20260506214549 6 317 12.9 19.3 0.00 0.41 0.00 92 1003.9
20260506213028 6 308 12.9 24.1 0.00 0.41 0.00 92 1003.9
20260506211526 6 326 11.3 20.9 0.00 0.41 0.00 92 1003.9
20260506210006 6 351 6.4 11.3 0.00 0.53 0.00 92 1003.8
20260506204503 6 291 4.8 12.9 0.00 0.53 0.00 91 1003.9
20260506203043 7 277 3.2 12.9 0.00 0.53 0.00 91 1003.9
20260506201542 7 328 11.3 16.1 0.00 0.53 0.00 90 1003.8
20260506200021 7 271 3.2 9.7 0.00 0.53 0.00 89 1003.7
20260506194519 7 297 1.6 11.3 0.00 0.53 0.00 88 1003.8
20260506193058 8 218 1.6 11.3 0.00 0.53 0.00 86 1003.8
20260506191558 8 275 4.8 11.3 0.00 0.53 0.00 85 1003.7
20260506190044 9 325 6.4 12.9 0.00 0.53 0.00 85 1003.6
20260506184550 9 273 6.4 16.1 0.00 0.53 0.00 85 1003.4
20260506183052 9 327 12.9 19.3 0.00 0.53 0.00 84 1003.6
20260506181608 9 327 12.9 19.3 0.00 0.53 0.00 84 1003.4
20260506180037 8 311 8.0 12.9 0.00 0.53 0.00 83 1003.7
20260506174534 8 267 4.8 12.9 0.00 0.53 0.00 86 1003.5
20260506173044 8 294 1.6 8.0 0.00 0.53 0.00 87 1003.6
20260506171531 8 219 4.8 14.5 0.00 0.53 0.00 87 1003.7
20260506170013 8 315 4.8 14.5 0.00 0.53 0.53 85 1003.7
20260506164512 8 292 3.2 8.0 0.00 0.53 0.53 86 1003.8
20260506163112 8 317 4.8 9.7 0.00 0.53 0.53 88 1003.8
20260506161554 7 223 3.2 11.3 0.00 0.53 0.53 91 1003.6
20260506160055 7 199 4.8 9.7 0.00 0.53 0.53 92 1003.5
20260506154535 7 172 3.2 8.0 0.00 0.53 0.53 94 1003.4
20260506153050 6 135 1.6 4.8 0.00 0.53 0.53 95 1003.7
20260506151517 6 126 1.6 4.8 0.00 0.53 0.53 95 1003.7
20260506150016 6 138 4.8 8.0 0.00 0.53 0.53 96 1003.6
20260506144604 6 113 3.2 9.7 0.03 0.53 0.53 96 1003.4
20260506143058 6 153 4.8 11.3 0.03 0.53 0.53 97 1003.4
20260506141540 6 137 3.2 6.4 0.03 0.53 0.53 97 1003.6
20260506140040 6 128 0.0 0.0 0.03 0.53 0.53 97 1003.5
20260506134521 5 128 0.0 1.6 0.03 0.51 0.51 97 1003.7
20260506133020 5 128 0.0 3.2 0.03 0.51 0.51 97 1003.8
20260506131501 5 128 0.0 6.4 0.03 0.51 0.51 97 1003.3
20260506130000 5 126 1.6 6.4 0.05 0.51 0.51 97 1003.0
20260506124543 5 192 0.0 1.6 0.03 0.48 0.48 97 1003.3
20260506123042 5 192 0.0 3.2 0.05 0.48 0.48 97 1002.9
20260506121524 5 192 0.0 0.0 0.08 0.48 0.48 97 1002.9
20260506120024 5 192 0.0 0.0 0.08 0.46 0.46 97 1003.0
20260506114517 5 192 0.0 3.2 0.08 0.46 0.46 97 1003.0
20260506113016 4 192 0.0 3.2 0.05 0.43 0.43 97 1003.0
20260506111548 4 192 0.0 3.2 0.03 0.41 0.41 97 1002.9
20260506110147 4 192 0.0 3.2 0.00 0.38 0.38 97 1002.6
20260506104533 4 192 0.0 3.2 0.00 0.38 0.38 96 1002.3
20260506103028 4 195 0.0 6.4 0.00 0.38 0.38 96 1002.5
20260506101511 5 195 0.0 0.0 0.00 0.38 0.38 96 1002.6
20260506100011 4 195 0.0 0.0 0.03 0.38 0.38 96 1002.6
20260506094552 4 195 0.0 0.0 0.03 0.38 0.38 96 1002.6
20260506093052 4 195 0.0 0.0 0.03 0.38 0.38 96 1002.5
20260506091535 5 195 0.0 0.0 0.03 0.38 0.38 96 1002.9
20260506090034 5 195 0.0 0.0 0.03 0.36 0.36 96 1002.8
20260506084514 5 195 0.0 1.6 0.05 0.36 0.36 96 1002.9
20260506083013 5 134 3.2 11.3 0.05 0.36 0.36 96 1002.7
20260506081557 5 180 3.2 9.7 0.10 0.36 0.36 95 1002.6
20260506080105 5 180 3.2 6.4 0.08 0.33 0.33 95 1002.5
20260506073033 5 237 1.6 3.2 0.08 0.28 0.28 94 1002.7
20260506071514 5 237 0.0 3.2 0.05 0.25 0.25 94 1002.7